DW1274 Weather Reports


Display with metric or nautical units.
time (UTC)temp
F
wind
direction
speed
MPH
gust
MPH
rain 1hr
in
rain 24hr
in
rain mn
in
humidity
%
barometer
mb
20260901192809 88 97 4.0 10.0 0.00 0.02 0.00 63 1014.9
20260901191807 88 44 4.0 10.0 0.00 0.02 0.00 64 1014.9
20260901191303 88 123 4.0 9.0 0.00 0.02 0.00 64 1014.9
20260901190303 89 145 5.0 10.0 0.00 0.02 0.00 61 1014.7
20260901185802 89 13 5.0 10.0 0.00 0.02 0.00 64 1014.7
20260901185305 89 84 5.0 10.0 0.00 0.02 0.00 63 1014.8
20260901184801 89 2 5.0 9.0 0.00 0.02 0.00 63 1014.9
20260901184301 89 72 5.0 9.0 0.00 0.02 0.00 63 1014.9
20260901183801 89 26 5.0 14.0 0.00 0.02 0.00 64 1015.2
20260901183301 89 114 4.0 14.0 0.00 0.02 0.00 65 1015.2
20260901182801 89 24 5.0 10.0 0.00 0.02 0.00 64 1015.2
20260901182305 88 113 6.0 12.0 0.00 0.02 0.00 66 1015.3
20260901181801 89 82 6.0 12.0 0.00 0.02 0.00 64 1015.2
20260901181305 88 48 6.0 11.0 0.00 0.02 0.00 63 1015.2
20260901180801 88 11 4.0 11.0 0.00 0.02 0.00 68 1015.4
20260901180301 87 113 4.0 9.0 0.00 0.02 0.00 67 1015.4
20260901175801 88 98 4.0 9.0 0.00 0.02 0.00 66 1015.5
20260901175300 89 24 4.0 9.0 0.00 0.02 0.00 66 1015.5
20260901174801 88 32 3.0 9.0 0.00 0.02 0.00 66 1015.6
20260901174300 87 75 3.0 8.0 0.00 0.02 0.00 70 1015.7
20260901173801 86 94 4.0 9.0 0.00 0.02 0.00 71 1015.7
20260901173300 86 48 4.0 9.0 0.00 0.02 0.00 70 1015.7
20260901172804 87 32 4.0 8.0 0.00 0.02 0.00 72 1015.8
20260901172304 87 45 4.0 9.0 0.00 0.02 0.00 71 1015.9
20260901171301 86 33 4.0 9.0 0.00 0.02 0.00 73 1016.0
20260901170801 86 45 4.0 10.0 0.00 0.02 0.00 72 1016.1
20260901170301 87 58 4.0 10.0 0.00 0.02 0.00 72 1016.2
20260901165800 87 49 4.0 11.0 0.00 0.02 0.00 72 1016.2
20260901165301 87 22 6.0 11.0 0.00 0.02 0.00 72 1016.3
20260901164802 87 4 5.0 11.0 0.00 0.02 0.00 72 1016.3
20260901164303 87 341 5.0 11.0 0.00 0.02 0.00 70 1016.3
20260901163802 86 32 6.0 11.0 0.00 0.02 0.00 73 1016.3
20260901163304 87 13 6.0 11.0 0.00 0.02 0.00 70 1016.3
20260901161802 85 62 4.0 10.0 0.00 0.02 0.00 78 1016.6
20260901161300 86 27 5.0 10.0 0.00 0.02 0.00 76 1016.6
20260901160801 86 36 5.0 10.0 0.00 0.02 0.00 73 1016.5
20260901155801 85 55 4.0 10.0 0.00 0.02 0.00 77 1016.6
20260901155300 86 45 4.0 13.0 0.00 0.02 0.00 75 1016.6
20260901154801 86 10 4.0 13.0 0.00 0.02 0.00 75 1016.7
20260901154301 86 39 2.0 8.0 0.00 0.02 0.00 72 1016.7
20260901153802 86 41 4.0 8.0 0.00 0.02 0.00 75 1016.7
20260901152801 87 18 5.0 10.0 0.00 0.02 0.00 72 1016.7
20260901152305 86 284 5.0 9.0 0.00 0.02 0.00 72 1016.7
20260901151802 86 11 3.0 8.0 0.00 0.02 0.00 74 1016.7
20260901151301 85 23 3.0 9.0 0.00 0.02 0.00 74 1016.7
20260901150801 85 355 5.0 15.0 0.00 0.02 0.00 75 1016.7
20260901145301 86 18 3.0 8.0 0.00 0.02 0.00 78 1016.6
20260901144800 86 30 4.0 11.0 0.00 0.02 0.00 75 1016.6
20260901144300 86 339 4.0 11.0 0.00 0.02 0.00 76 1016.5
20260901143301 86 13 3.0 8.0 0.00 0.02 0.00 74 1016.5
20260901142800 85 67 3.0 9.0 0.00 0.02 0.00 77 1016.5
20260901142300 85 345 4.0 10.0 0.00 0.02 0.00 79 1016.5
20260901141802 84 295 4.0 10.0 0.00 0.02 0.00 79 1016.5
20260901141301 84 331 3.0 10.0 0.00 0.02 0.00 82 1016.5
20260901140802 83 19 4.0 7.0 0.00 0.02 0.00 81 1016.5
20260901140302 83 7 4.0 7.0 0.00 0.02 0.00 84 1016.6
20260901135804 83 34 3.0 7.0 0.00 0.02 0.00 83 1016.6
20260901135301 83 21 3.0 7.0 0.00 0.02 0.00 85 1016.7
20260901134803 82 0 4.0 8.0 0.00 0.02 0.00 85 1016.7
20260901134302 82 340 4.0 8.0 0.00 0.02 0.00 85 1016.7
20260901133801 82 4 4.0 8.0 0.00 0.02 0.00 86 1016.7
20260901133302 82 24 3.0 8.0 0.00 0.02 0.00 85 1016.6
20260901132802 82 349 3.0 7.0 0.00 0.02 0.00 86 1016.6
20260901131803 81 340 3.0 7.0 0.00 0.02 0.00 86 1016.6
20260901131303 81 359 4.0 7.0 0.00 0.02 0.00 87 1016.5
20260901130800 80 334 3.0 7.0 0.00 0.02 0.00 87 1016.5
20260901130300 80 12 3.0 7.0 0.00 0.02 0.00 89 1016.5
20260901125801 79 30 3.0 7.0 0.00 0.02 0.00 92 1016.6
20260901125301 78 37 4.0 7.0 0.00 0.02 0.00 93 1016.6
20260901124301 77 18 4.0 7.0 0.00 0.02 0.00 94 1016.5
20260901123801 76 12 3.0 7.0 0.00 0.02 0.00 95 1016.4
20260901123301 76 48 3.0 6.0 0.00 0.02 0.00 95 1016.4
20260901122301 76 17 3.0 4.0 0.00 0.02 0.00 95 1016.2
20260901121302 76 354 2.0 4.0 0.00 0.02 0.00 94 1016.2
20260901120302 75 11 3.0 5.0 0.00 0.02 0.00 94 1016.1
20260901115306 75 7 2.0 4.0 0.00 0.02 0.00 94 1016.1
20260901114806 75 37 2.0 4.0 0.00 0.02 0.00 94 1016.1
20260901114302 75 244 2.0 4.0 0.00 0.02 0.00 94 1016.0
20260901113758 75 4 2.0 4.0 0.00 0.02 0.00 94 1015.9
20260901113254 75 343 3.0 5.0 0.00 0.02 0.00 94 1015.9
20260901112753 75 19 3.0 5.0 0.00 0.02 0.00 94 1015.8
20260901112254 75 16 3.0 4.0 0.00 0.02 0.00 94 1015.7
20260901110757 75 0 2.0 4.0 0.00 0.02 0.00 94 1015.5
20260901110239 75 14 2.0 4.0 0.00 0.02 0.00 94 1015.5
20260901105738 75 348 2.0 4.0 0.00 0.02 0.00 94 1015.5
20260901105239 75 8 2.0 4.0 0.00 0.02 0.00 94 1015.5
20260901104239 75 342 2.0 4.0 0.00 0.02 0.00 94 1015.5
20260901103738 75 318 2.0 4.0 0.00 0.02 0.00 94 1015.4
20260901103239 75 16 2.0 3.0 0.00 0.02 0.00 94 1015.4
20260901102743 75 3 1.0 3.0 0.00 0.02 0.00 94 1015.3
20260901102230 75 0 2.0 3.0 0.00 0.02 0.00 94 1015.4
20260901101731 75 350 2.0 4.0 0.00 0.02 0.00 94 1015.3
20260901101230 75 2 3.0 4.0 0.00 0.02 0.00 94 1015.3
20260901100730 75 271 3.0 4.0 0.00 0.02 0.00 94 1015.2
20260901100230 75 351 3.0 4.0 0.00 0.02 0.00 94 1015.2
20260901095730 75 6 3.0 4.0 0.00 0.02 0.00 94 1015.3
20260901095229 75 25 2.0 3.0 0.00 0.02 0.00 94 1015.2
20260901094731 75 12 2.0 3.0 0.00 0.02 0.00 94 1015.1
20260901094230 75 10 1.0 2.0 0.00 0.02 0.00 94 1015.2
20260901093731 75 227 1.0 3.0 0.00 0.02 0.00 94 1015.2
20260901093233 75 25 2.0 3.0 0.00 0.02 0.00 94 1015.1
20260901092229 75 328 2.0 3.0 0.00 0.02 0.00 94 1015.0
20260901091730 75 23 2.0 3.0 0.00 0.02 0.00 94 1015.0
20260901091229 76 33 2.0 3.0 0.00 0.02 0.00 94 1014.9
20260901090730 76 0 1.0 3.0 0.00 0.02 0.00 94 1014.9
20260901090229 76 355 1.0 3.0 0.00 0.02 0.00 94 1014.9
20260901085233 75 357 1.0 2.0 0.00 0.02 0.00 94 1014.9
20260901084730 75 353 1.0 3.0 0.00 0.02 0.00 94 1014.9
20260901083729 75 0 0.0 2.0 0.00 0.02 0.00 94 1014.9
20260901083229 76 0 0.0 2.0 0.00 0.02 0.00 94 1014.9
20260901081729 76 337 0.0 2.0 0.00 0.02 0.00 93 1014.8
20260901081229 76 0 1.0 2.0 0.00 0.02 0.00 93 1014.9
20260901080729 76 351 1.0 2.0 0.00 0.02 0.00 93 1015.0
20260901080229 76 338 0.0 2.0 0.00 0.02 0.00 93 1015.0
20260901075728 76 0 1.0 3.0 0.00 0.02 0.00 93 1015.0
20260901075228 76 6 2.0 3.0 0.00 0.02 0.00 93 1015.0
20260901074730 76 4 1.0 3.0 0.00 0.02 0.00 93 1015.0
20260901073729 76 0 0.0 0.0 0.00 0.02 0.00 93 1015.1
20260901073229 76 0 0.0 0.0 0.00 0.02 0.00 93 1015.2
20260901072228 76 0 0.0 1.0 0.00 0.02 0.00 93 1015.3
20260901071733 76 0 0.0 1.0 0.00 0.02 0.00 93 1015.3
20260901071229 76 0 0.0 0.0 0.00 0.02 0.00 93 1015.3
20260901070729 76 0 0.0 0.0 0.00 0.02 0.00 93 1015.4
20260901065729 76 346 1.0 2.0 0.00 0.02 0.00 93 1015.5
20260901065228 76 349 1.0 2.0 0.00 0.02 0.00 93 1015.6
20260901064729 76 0 0.0 1.0 0.00 0.02 0.00 93 1015.6
20260901063729 76 0 0.0 2.0 0.00 0.02 0.00 93 1015.7
20260901063229 76 0 1.0 2.0 0.00 0.02 0.00 93 1015.7
20260901062232 76 4 0.0 2.0 0.00 0.02 0.00 92 1015.8
20260901061729 76 0 0.0 3.0 0.00 0.02 0.00 92 1015.8
20260901061229 76 0 2.0 3.0 0.00 0.02 0.00 92 1015.9
20260901060729 76 343 2.0 3.0 0.00 0.02 0.00 92 1015.9
20260901060229 76 333 1.0 2.0 0.00 0.02 0.00 92 1016.0
20260901055729 77 359 1.0 3.0 0.00 0.02 0.00 92 1016.0
20260901054729 77 351 1.0 3.0 0.00 0.02 0.00 92 1016.0
20260901054229 77 16 0.0 2.0 0.00 0.02 0.00 92 1016.0
20260901053729 77 0 0.0 2.0 0.00 0.02 0.00 92 1016.0
20260901053229 77 0 1.0 3.0 0.00 0.02 0.00 92 1016.0
20260901052728 77 0 2.0 3.0 0.00 0.02 0.00 92 1016.0
20260901052229 77 50 1.0 3.0 0.00 0.02 0.00 92 1016.0
20260901051729 77 0 1.0 2.0 0.00 0.02 0.00 92 1016.1
20260901050233 77 337 2.0 4.0 0.00 0.02 0.00 91 1016.2
20260901045730 77 16 1.0 3.0 0.00 0.02 0.00 91 1016.3
20260901045229 77 0 1.0 4.0 0.00 0.02 0.00 91 1016.3
20260901044730 77 26 2.0 4.0 0.00 0.02 0.00 91 1016.3
20260901044230 77 14 2.0 4.0 0.00 0.02 0.00 91 1016.3
20260901043730 77 359 2.0 4.0 0.00 0.02 0.00 91 1016.3
20260901043229 77 358 1.0 2.0 0.00 0.02 0.00 91 1016.4
20260901042730 77 328 0.0 2.0 0.00 0.02 0.00 91 1016.3
20260901042229 77 0 0.0 1.0 0.00 0.02 0.00 90 1016.4
20260901041731 77 0 0.0 1.0 0.00 0.02 0.00 90 1016.4
20260901041230 77 0 0.0 2.0 0.00 0.02 0.00 90 1016.4
20260901040730 77 353 0.0 2.0 0.00 0.02 0.00 90 1016.4
20260901040230 77 0 1.0 2.0 0.00 0.02 0.00 89 1016.4
20260901035729 78 206 2.0 4.0 0.00 0.02 0.02 89 1016.5
20260901035229 78 17 1.0 4.0 0.00 0.02 0.02 89 1016.5
20260901034730 78 0 1.0 2.0 0.00 0.02 0.02 89 1016.5
20260901033730 78 8 2.0 3.0 0.00 0.02 0.02 89 1016.6
20260901033230 78 11 2.0 3.0 0.00 0.02 0.02 89 1016.5
20260901032734 78 5 1.0 3.0 0.00 0.02 0.02 89 1016.6
20260901031730 78 352 0.0 1.0 0.00 0.02 0.02 88 1016.6
20260901031231 78 0 0.0 2.0 0.00 0.02 0.02 88 1016.6
20260901030730 78 0 1.0 2.0 0.00 0.02 0.02 87 1016.6
20260901030230 79 240 0.0 2.0 0.00 0.02 0.02 87 1016.6
20260901025730 79 0 0.0 2.0 0.00 0.02 0.02 87 1016.7
20260901024731 79 0 1.0 4.0 0.00 0.02 0.02 86 1016.8
20260901024230 79 356 1.0 3.0 0.00 0.02 0.02 86 1016.8
20260901023730 80 0 1.0 4.0 0.00 0.02 0.02 86 1016.8
20260901023229 80 0 2.0 4.0 0.00 0.02 0.02 85 1016.8
20260901022230 80 7 2.0 4.0 0.00 0.02 0.02 85 1016.7
20260901021730 80 23 2.0 5.0 0.00 0.02 0.02 85 1016.7
20260901021231 80 30 3.0 5.0 0.00 0.02 0.02 85 1016.6
20260901020730 80 26 1.0 4.0 0.00 0.02 0.02 85 1016.5
20260901020230 80 0 1.0 3.0 0.00 0.02 0.02 85 1016.5
20260901015730 80 21 1.0 3.0 0.00 0.02 0.02 85 1016.5
20260901015230 80 67 2.0 4.0 0.00 0.02 0.02 84 1016.4
20260901013730 80 120 0.0 2.0 0.00 0.02 0.02 85 1016.2
20260901012229 81 47 1.0 3.0 0.00 0.02 0.02 84 1016.1
20260901011731 81 214 1.0 3.0 0.00 0.02 0.02 84 1016.0
20260901011230 81 83 1.0 3.0 0.00 0.02 0.02 84 1015.9
20260901010730 81 23 1.0 4.0 0.00 0.02 0.02 84 1015.8
20260901010230 81 54 1.0 4.0 0.00 0.02 0.02 84 1015.7
20260901005730 81 52 2.0 4.0 0.00 0.02 0.02 83 1015.7
20260901005230 81 56 2.0 5.0 0.00 0.02 0.02 83 1015.6
20260901004730 81 11 2.0 5.0 0.00 0.02 0.02 82 1015.6
20260901004230 82 0 2.0 5.0 0.00 0.02 0.02 82 1015.6
20260901003729 82 61 2.0 5.0 0.00 0.02 0.02 81 1015.6
20260901003228 82 3 2.0 5.0 0.00 0.02 0.02 80 1015.6
20260901002728 82 0 1.0 4.0 0.00 0.02 0.02 80 1015.6
20260901002228 82 73 1.0 5.0 0.00 0.02 0.02 79 1015.6
20260901001729 82 50 2.0 5.0 0.00 0.02 0.02 79 1015.6
20260901001229 82 251 2.0 6.0 0.00 0.02 0.02 79 1015.6
20260901000730 82 55 2.0 6.0 0.00 0.02 0.02 79 1015.5
20260831235730 83 6 2.0 6.0 0.00 0.02 0.02 78 1015.5
20260831235230 83 100 3.0 9.0 0.00 0.02 0.02 77 1015.5
20260831234733 83 18 3.0 9.0 0.00 0.02 0.02 77 1015.4
20260831234230 83 15 3.0 8.0 0.00 0.02 0.02 76 1015.4
20260831233730 83 24 3.0 8.0 0.00 0.02 0.02 76 1015.4
20260831232729 84 59 4.0 11.0 0.00 0.02 0.02 74 1015.5
20260831232229 84 75 4.0 9.0 0.01 0.02 0.02 74 1015.5
20260831231729 84 30 4.0 11.0 0.01 0.02 0.02 73 1015.5
20260831231229 85 103 4.0 11.0 0.02 0.02 0.02 73 1015.6
20260831230729 85 108 3.0 8.0 0.02 0.02 0.02 72 1015.5
20260831230229 85 8 3.0 10.0 0.02 0.02 0.02 71 1015.4
20260831224730 86 84 4.0 11.0 0.02 0.02 0.02 70 1015.3
20260831224226 86 13 4.0 9.0 0.02 0.02 0.02 70 1015.2
20260831223225 86 109 4.0 9.0 0.02 0.02 0.02 70 1015.2
20260831222725 86 52 4.0 9.0 0.02 0.02 0.02 70 1015.2
20260831222225 86 31 4.0 9.0 0.01 0.02 0.02 69 1015.0
20260831221224 86 74 4.0 11.0 0.00 0.01 0.01 69 1014.9
20260831220724 87 116 3.0 11.0 0.00 0.00 0.00 67 1015.0
20260831215222 86 18 5.0 11.0 0.00 0.00 0.00 69 1015.0
20260831214720 86 102 4.0 9.0 0.00 0.00 0.00 68 1015.1
20260831214219 86 16 3.0 9.0 0.00 0.00 0.00 69 1015.1
20260831213719 86 77 4.0 8.0 0.00 0.00 0.00 68 1015.1
20260831213220 86 110 4.0 9.0 0.00 0.00 0.00 68 1015.0
20260831212720 86 69 4.0 10.0 0.00 0.00 0.00 69 1015.1
20260831212223 86 114 4.0 10.0 0.00 0.00 0.00 70 1015.1
20260831211219 86 33 5.0 10.0 0.00 0.00 0.00 70 1015.1
20260831210219 86 87 5.0 9.0 0.00 0.00 0.00 70 1015.0
20260831205719 86 74 5.0 9.0 0.00 0.00 0.00 70 1015.0
20260831205218 86 52 5.0 10.0 0.00 0.00 0.00 71 1015.1
20260831204714 86 71 4.0 10.0 0.00 0.00 0.00 71 1015.1
20260831204214 87 107 4.0 10.0 0.00 0.00 0.00 70 1015.0
20260831203715 87 19 5.0 10.0 0.00 0.00 0.00 70 1015.0
20260831203215 87 141 4.0 10.0 0.00 0.00 0.00 69 1014.9
20260831202715 87 45 4.0 10.0 0.00 0.00 0.00 69 1014.9
20260831202215 87 151 4.0 9.0 0.00 0.00 0.00 69 1014.8
20260831201715 87 134 4.0 11.0 0.00 0.00 0.00 69 1014.9
20260831201214 88 55 5.0 11.0 0.00 0.00 0.00 69 1014.9
20260831200714 88 27 4.0 10.0 0.00 0.00 0.00 66 1014.9
20260831200214 88 9 3.0 9.0 0.00 0.00 0.00 66 1014.9
20260831195712 87 44 4.0 10.0 0.00 0.00 0.00 68 1014.9
20260831195212 87 39 5.0 11.0 0.00 0.00 0.00 69 1014.9
20260831194708 88 1 4.0 11.0 0.00 0.00 0.00 68 1015.0
20260831194209 87 59 4.0 11.0 0.00 0.00 0.00 69 1015.1
20260831193709 87 346 5.0 11.0 0.00 0.00 0.00 69 1015.2
20260831193209 87 9 5.0 10.0 0.00 0.00 0.00 69 1015.1